PEGASUS DEB

Satellite information

Favourite Embed

Satellite Type and Status

DEBRISIN ORBIT

Key statistics

Satellite PEGASUS DEB at a glance.

Uptime

11373

Days in orbit

Revolutions

≈ 13.7

Per day

Orbit

LEO

Low Earth Orbit

Inclination

81.5

Latest

Satellite identification and parameters

Extended collection of information and parameters for PEGASUS DEB.

Object identification

Identified? True

Debris? True

Object name: PEGASUS DEB

International designator: 1994-029ACT

Object number (NORAD): 24985

Object ID (CCSDS): 24985

Country: UNITED STATES OF AMERICA (US)

Current information (Y/N): Y

RCS size: SMALL

Orbital parameters

Period: 105.263 minutes

Inclination: 81.5131 deg

SMA: 7384.89 km

Apoapsis: 1460.067 km

Periapsis: 553.442 km

RAAN: 111.8849 deg

Eccentricy: 0.0613838

Argument of periapsis: 131.9634 deg

Mean anomaly: 233.5533 deg

Mean motion: 13.68002018 rev/day

Mean motion (dot): 0.00001395 rev/day2

B* drag term: 0.00042068 1/REarth

Two-line elements (TLE)

Creation date: July 8, 2025, 2:27 a.m.

Reference frame: TEME

Reference center: EARTH

Epoch: July 7, 2025, 6:56 p.m. UTC

TLE line 0: 0 PEGASUS DEB

TLE line 1: 1 24985U 94029ACT 25188.78928526 .00001395 00000-0 42068-3 0 9994

TLE line 2: 2 24985 81.5131 111.8849 0613838 131.9634 233.5533 13.68002018552046

Live tracking on map

Real-time ground track for satellite PEGASUS DEB.

In-orbit conjunctions

A list of the most updated potential collisions computed for object PEGASUS DEB.

Target Orbit TCA Probability of collision Miss distance Type
EOLE 1 (CAS-A) LEO 2024-08-06 04:50:49 0.0005062541 776.0 (m) PAYLOAD

Associated space launch

PEGASUS DEB was lifted into orbit during the mission ‘Pegasus HAPS | Space Test Experiments Platform 2 (STEP-2)’, on board a Pegasus HAPS space rocket.

The launch took place on May 19, 1994, 5:03 p.m. from Edwards Air Force Base.

For more information about the launch, click the button.

Launch to space Pegasus HAPS | Space Test Experiments Platform 2 (STEP-2)
Pegasus HAPS | Space Test Experiments Platform 2 (STEP-2)

Agency: N/A

Status: Launch Successful

Launch date: May 19, 1994, 5:03 p.m. UTC

Rocket: Pegasus HAPS

Launch pad: Edwards Air Force Base

Location: Air launch to orbit

...

Latest news about this satellite

There are no fresh news available about this satellite. Check back as we update our databases every day.


Newsletter sign-up

Weekly statistics, charts and insights to help you stay on top of the space industry.